Location: Bennemühlen
(52.5740°N, 9.7135°E)
Time: 06:42:38
(UTC+00:00)

Transit 4A - Visible Passes

Search period start: 18 February 2026 00:00
Search period end: 28 February 2026 00:00
Orbit: 865 x 976 km, 66.8° (Epoch: 17 February)

Date Brightness Start Highest point End Pass type
(mag) Time Alt. Az. Time Alt. Az. Time Alt. Az.
18 Feb 9.6 02:19:40 25° E 02:19:40 25° E 02:23:59 10° NE visible
18 Feb 7.7 04:03:09 48° SW 04:04:53 78° NW 04:11:01 10° NE visible
18 Feb 8.9 05:46:58 10° W 05:52:09 29° NNW 05:57:28 10° NE visible
19 Feb 9.1 02:28:28 34° E 02:28:28 34° E 02:33:04 10° NE visible
19 Feb 7.9 04:11:57 43° WSW 04:13:44 61° NW 04:19:47 10° NE visible
20 Feb 8.7 02:37:12 44° E 02:37:12 44° E 02:42:02 10° NE visible
20 Feb 8.2 04:20:41 36° W 04:22:38 48° NW 04:28:34 10° NE visible
21 Feb 10.5 01:02:24 11° ENE 01:02:24 11° ENE 01:02:38 10° ENE visible
21 Feb 8.3 02:45:53 56° ENE 02:45:53 56° ENE 02:50:55 10° NE visible
21 Feb 8.5 04:29:21 29° WNW 04:31:36 39° NW 04:37:21 10° NE visible
22 Feb 10.3 01:11:02 14° ENE 01:11:02 14° ENE 01:12:19 10° ENE visible
22 Feb 8.1 02:54:31 66° NE 02:54:31 66° NE 02:59:44 10° NE visible
22 Feb 8.8 04:37:59 23° WNW 04:40:38 33° NNW 04:46:10 10° NE visible
23 Feb 10.1 01:19:38 18° ENE 01:19:38 18° ENE 01:21:35 10° NE visible
23 Feb 8.0 03:03:06 66° N 03:03:06 66° N 03:08:32 10° NE visible
23 Feb 9.0 04:46:34 19° WNW 04:49:43 28° NNW 04:55:01 10° NE visible
24 Feb 9.8 01:28:11 23° ENE 01:28:11 23° ENE 01:30:38 10° NE visible
24 Feb 8.1 03:11:39 56° NNW 03:11:39 56° NNW 03:17:19 10° NE visible
24 Feb 9.2 04:55:07 15° WNW 04:58:51 25° NNW 05:03:55 10° NE visible
25 Feb 9.6 01:36:43 28° ENE 01:36:43 28° ENE 01:39:34 10° NE visible
25 Feb 8.3 03:20:10 46° NW 03:20:10 46° NW 03:26:05 10° NE visible
25 Feb 9.4 05:03:38 11° WNW 05:08:02 23° NNW 05:12:54 10° NE visible
26 Feb 9.3 01:45:12 33° NE 01:45:12 33° NE 01:48:26 10° NE visible
26 Feb 8.6 03:28:40 37° NW 03:29:09 38° NNW 03:34:52 10° NE visible
26 Feb 9.5 05:12:35 10° WNW 05:17:14 22° N 05:21:58 10° NE visible
27 Feb 9.1 01:53:41 37° NE 01:53:41 37° NE 01:57:15 10° NE visible
27 Feb 8.8 03:37:08 30° NW 03:38:12 32° NNW 03:43:41 10° NE visible
27 Feb 9.6 05:21:49 10° NW 05:26:26 22° N 05:31:08 10° NE visible
